Flag for Canada Weather past 2 weeks in Morden, Manitoba, Canada

Now
60 °F

Cool.


Feels Like: 60 °F
Forecast: 45 / 75 °F
Wind: 7 mph from West

Location: Morden CDA CS

Current Time: Aug 27, 2014 at 10:44:23 AM

Latest Report: Aug 27, 2014 at 9:00 AM


Visibility: N/A

Pressure: 30.12 "Hg

Humidity: 76%

Dew point: 53 °F

Location of MordenLocation

Historic Weather in Morden — Graph

°F

Morden temperature yesterday

Maximum temperature yesterday: 68 °F (at 5:00 PM)
Minimum temperature yesterday: 49 °F (at 2:00 AM)
Average temperature yesterday: 57 °F

Past Weeks' High & Low Weather Summary

 TemperatureHumidityPressure
High85 °F (Aug 15, 3:00 PM)98% (Aug 23, 9:00 AM)30.18 "Hg (Aug 23, 9:00 AM)
Low47 °F (Aug 27, 1:00 AM)36% (Aug 12, 4:00 PM)29.53 "Hg (Aug 24, 5:00 PM)
Average66 °F79%29.87 "Hg
* Reported Aug 12 9:00 AM — Aug 27 9:00 AM, Morden, Weather by CustomWeather, © 2014

Note: Actual official high and low records may vary slightly from our data, if they occured in-between our weather recording intervals... More about our weather records

Advertising

Morden weather history for previous 24 hours

 ConditionsComfort  
Time TempWeatherWind HumidityBarometerVisibility
9:00 AM
Aug 27
60 °FCool.7 mph76%30.12 "HgN/A
8:00 AM56 °FCool.6 mph82%30.11 "HgN/A
7:00 AM52 °FCool.7 mph79%30.12 "HgN/A
6:00 AM52 °FCool.6 mph80%30.12 "HgN/A
5:00 AM50 °FCool.3 mph81%30.12 "HgN/A
4:00 AM50 °FCool.5 mph83%30.12 "HgN/A
3:00 AM49 °FCool.6 mph85%30.13 "HgN/A
2:00 AM48 °FCool.3 mph91%30.13 "HgN/A
1:00 AM47 °FCool.No wind96%30.13 "HgN/A
12:00 AM48 °FCool.No wind94%30.13 "HgN/A
11:00 PM
Aug 26
49 °FCool.3 mph91%30.13 "HgN/A
10:00 PM53 °FCool.No wind88%30.11 "HgN/A
9:00 PM59 °FCool.2 mph71%30.11 "HgN/A
8:00 PM62 °FCool.No wind65%30.09 "HgN/A
7:00 PM67 °FMild.3 mph46%30.09 "HgN/A
6:00 PM65 °FMild.5 mph42%30.10 "HgN/A
5:00 PM68 °FMild.6 mph43%30.11 "HgN/A
4:00 PM67 °FMild.3 mph44%30.11 "HgN/A
3:00 PM63 °FMild.7 mph50%30.12 "HgN/A
2:00 PM62 °FRefreshingly cool.5 mph54%30.15 "HgN/A
1:00 PM62 °FCool.2 mph62%30.16 "HgN/A
12:00 PM59 °FCool.5 mph66%30.17 "HgN/A
11:00 AM57 °FCool.6 mph69%30.16 "HgN/A
10:00 AM55 °FCool.6 mph71%30.18 "HgN/A
Weather by CustomWeather, © 2014

See weather overviewHow to use our weather pages